Location: D?uga
(50.2667°N, 19.7833°E)
Time: 01:52:10
(UTC+00:00)

USA 234 - Pass Details

Date: 23 May 2024
Orbit: 1100 x 1107 km, 123.0° (Epoch: 16 June)

Event Time Altitude Azimuth Distance (km) Brightness Sun altitude
Exits shadow 00:56:34 14° 193° (SSW) 2,631 4.7 -12.7°
Maximum altitude 01:00:15 23° 234° (SW) 2,159 4.3 -12.4°
Drops below altitude 10° 01:05:14 10° 285° (WNW) 2,963 5.3 -12.0°
Sets 01:08:22 0° 299° (WNW) 3,924 6.1 -11.7°
